THORAD AGENA D DEB, 42522

Orbit data source: Space-Track

THORAD AGENA D DEB, 42522 is space debris in SSO originally from a launch on Wed, 08 Apr 1970 UTC launched from the Air Force Western Test Range (AFWTR). Debris objects in space refer to the collection of defunct objects orbiting the Earth. Examples of debris include non-operational satellites, rocket bodies, and fragments generated from explosions, collisions, or faulty payload assembly.

Loading next visibility...
Identifier
42522, 1970-025SC
Orbit
SSO
Country
Flag of USUS
Related business
Manufacturer
Unknown
Mission
Spacecraft
Bus & Motor
Unknown
Mass
Unknown
Launch date (UTC)
1970-04-08 (56 years ago)
Launch vehicle
Unknown
Launch site
Air Force Western Test Range (AFWTR)
Object type
Payload
Rocket body
Debris
Shape & HBR
Unknown shape, 0.1 m
Radar Cross Section
Small (<0.1 m²)

Expand to show TLE details & history
Last TLE update: 2 days ago

TLE from 2 days ago
0 THORAD AGENA D DEB
1 42522U 70025SC  25339.25555249  .00000753  00000-0  99455-3 0  9998
2 42522  99.6475  80.9815 0031549 105.1275 255.3361 13.64233090598470
Epoch: 2025-12-05T06:07Z
TLE epoch observation values (Epoch: 2025-12-05T06:07:59.735Z)
Latitude
0.00001°
Longitude
-85.31766°
Altitude
1,029.134 km
Speed
7.334 km/s
True Right ascension
05h 23m 55s
True Declination
0° 00' 00"
Sunlit
Object was in full shadow at epoch
Visualization orbit readout
Latitude
Unknown
Longitude
Unknown
Altitude
Unknown
Speed
Unknown
Apparent Right ascension
Unknown
Apparent Declination
Unknown
Sunlit
N/A
Visualization observer readout
Local Sidereal Time
12:50:32
Azimuth
Unknown
Elevation
Unknown
Doppler factor
Unknown
Orbital elements
Apogee altitude
1,040.96 km
Perigee altitude
994.295 km
Semi-major axis
7,395.764 km
Eccentricity
0.00315
Inclination
99.6475°
RAAN
80.9815°
Arg. of periapsis
105.1275°
True anomaly
254.9867°
Mean anomaly
255.3361°
Eccentric anomaly
255.16137°
Mean motion
3.41247 °/min
Orbital period
105.5 mins
BSTAR
0.00099455

Documentation

Showing up to 5 results
|